[[{"header":{"parameterUnit":"m.s-1","parameterCategory":1,"la1":30.2991,"la2":30.254,"lo1":-89.0895,"lo2":-89.0444,"dy":0.0017,"dx":0.0017,"nx":28,"ny":28,"refTime":"2024-04-05T21:00:00:Z","depth":0,"parameterNumber":2,"parameterNumberName":"U-component_of_WINDS"},"data":[0,0,0,0,0,0,0,0,0,0,0,0,0,0,0,0,0,0,0,0,0,0,0,0,0,0,0,0,0,0,0,0,0,0,0,0,0,0,0,0,0,0,0,0,0,0,0,0,0,0,0,0,0,0,0,0,0,0,-3.6242,-3.6241,0,-3.6172,-3.6171,-3.617,-3.601,-3.6006,-3.6003,-3.6,-3.5932,-3.5933,-3.5934,0,0,0,0,0,0,0,0,0,0,0,0,0,-3.6244,-3.6245,-3.6242,-3.6241,-3.624,-3.6172,-3.6171,-3.617,-3.601,-3.6006,-3.6002,-3.5998,-3.5931,-3.5933,-3.5934,0,0,0,0,0,0,0,0,0,0,0,0,0,-3.6216,-3.6245,-3.6242,-3.6152,-3.6144,-3.6172,-3.6171,-3.617,-3.6011,-3.6006,-3.6001,-3.5996,-3.5931,-3.5933,-3.5935,-3.6046,0,0,-3.594,-3.5941,0,0,0,0,0,0,0,0,-3.6217,-3.6216,-3.6166,-3.6159,-3.6149,-3.6094,-3.6146,-3.6128,-3.6012,-3.6062,-3.6,-3.5994,-3.599,-3.5987,-3.5985,-3.6043,-3.604,-3.5941,-3.5942,-3.5943,-3.5943,0,0,0,0,0,0,0,-3.622,-3.6218,-3.6214,-3.6166,-3.6155,-3.6117,-3.6108,-3.6142,-3.6055,-3.6057,-3.6045,-3.6039,-3.5984,-3.5983,-3.5982,-3.6039,-3.5941,-3.5942,-3.5944,-3.5944,-3.6187,-3.6192,0,0,0,0,0,0,-3.6234,-3.622,-3.6217,-3.6212,-3.6171,-3.6121,-3.6111,-3.6117,-3.6054,-3.6039,-3.6043,-3.6031,-3.5982,-3.598,-3.5979,-3.6105,-3.5943,-3.5944,-3.5946,-3.6181,-3.6188,-3.6193,0,0,0,0,0,0,-3.6235,-3.6235,-3.6219,-3.6213,-3.6208,-3.6127,-3.6135,-3.6118,-3.6116,-3.6043,-3.6027,-3.6057,-3.5978,-3.5976,-3.6031,-3.61,-3.5945,-3.5947,-3.6175,-3.6183,-3.6191,-3.6359,0,0,0,0,0,0,-3.6235,-3.6236,-3.6276,-3.6215,-3.6209,-3.6271,-3.6139,-3.612,-3.612,-3.6104,-3.6053,-3.6039,-3.5974,-3.6029,-3.6033,-3.61,-3.5949,-3.6168,-3.6179,-3.6188,-3.6347,-3.6372,-3.6393,0,0,0,0,0,-3.6236,-3.6327,-3.6279,-3.6279,-3.6257,-3.6275,-3.6272,-3.6194,-3.6126,-3.6166,-3.612,-3.6041,-3.6093,-3.6035,-3.6039,-3.6108,-3.6164,-3.6176,-3.6187,-3.6336,-3.6367,-3.6392,0,0,0,0,0,0,-3.6399,-3.6317,-3.6263,-3.6337,-3.6314,-3.6248,-3.6296,-3.6229,-3.6225,-3.6211,-3.6116,-3.6106,-3.6173,-3.6146,-3.6084,-3.6213,-3.6116,-3.6129,-3.6228,-3.6256,-3.6279,-3.6283,-3.595,0,0,0,0,0,-3.6443,-3.6463,-3.6391,-3.6464,-3.6455,-3.6379,-3.6383,-3.6325,-3.6299,-3.6288,-3.6245,-3.6224,-3.6235,-3.6245,-3.6251,-3.6343,-3.633,-3.6393,-3.6416,-3.6435,-3.6447,-3.6495,-3.6522,-3.6233,-3.6232,-3.6232,0,0,-3.6535,-3.6493,-3.6512,-3.6496,-3.6471,-3.6495,-3.6371,-3.6402,-3.6419,-3.6293,-3.6341,-3.631,-3.628,-3.6354,-3.6384,-3.6333,-3.6525,-3.645,-3.6466,-3.6467,-3.651,-3.6537,-3.6562,-3.6241,-3.6239,-3.6238,0,0,-3.6715,-3.6685,-3.6742,-3.6721,-3.6685,-3.6634,-3.6648,-3.6593,-3.6567,-3.6614,-3.652,-3.6541,-3.6562,-3.6545,-3.6539,-3.6716,-3.6643,-3.6721,-3.6841,-3.6888,-3.6911,-3.6931,-3.6994,-3.7018,-3.6734,-3.6734,-3.6734,0,-3.6834,-3.6865,-3.678,-3.6817,-3.6813,-3.6701,-3.6758,-3.6742,-3.6712,-3.6713,-3.6656,-3.6682,-3.6653,-3.6722,-3.6765,-3.6765,-3.6779,-3.6725,-3.6915,-3.6934,-3.6951,-3.701,-3.7034,-3.6743,-3.6742,-3.6741,-3.6741,0,-3.7013,-3.7037,-3.7087,-3.7059,-3.7062,-3.711,-3.7034,-3.7047,-3.6991,-3.6946,-3.6997,-3.6959,-3.6956,-3.6969,-3.6914,-3.7031,-3.7,-3.6932,-3.6831,-3.6989,-3.7043,-3.7065,-3.6757,-3.6754,-3.6751,-3.6749,0,0,-3.7289,-3.7216,-3.7236,-3.7223,-3.7177,-3.7194,-3.7239,-3.7235,-3.7248,-3.7233,-3.7267,-3.729,-3.7225,-3.7219,-3.7162,-3.7204,-3.7347,-3.7129,-3.7127,-3.717,-3.7474,-3.7525,-3.7552,-3.73,-3.7304,-3.7307,-3.7476,0,-3.7457,-3.7525,-3.7452,-3.7536,-3.7557,-3.7453,-3.7491,-3.7469,-3.743,-3.7444,-3.7401,-3.7418,-3.7333,-3.7328,-3.7365,-3.7322,-3.7406,-3.7309,-3.7332,-3.7334,-3.7341,-3.758,-3.7634,-3.7795,-3.7497,-3.75,-3.7503,0,-3.766,-3.7653,-3.7739,-3.7689,-3.7696,-3.7731,-3.7723,-3.7738,-3.7712,-3.768,-3.7675,-3.7606,-3.7648,-3.7552,-3.7609,-3.7544,-3.755,-3.7531,-3.7535,-3.7533,-3.7426,-3.7583,-3.7844,-3.7868,-3.7535,-3.7532,-3.753,0,-3.7852,-3.7865,-3.7918,-3.791,-3.7854,-3.7881,-3.786,-3.7828,-3.7831,-3.7826,-3.7827,-3.7827,-3.7827,-3.7829,-3.7763,-3.77,-3.7829,-3.7727,-3.7804,-3.7806,-3.7834,-3.7833,-3.8098,-3.7842,-3.7841,-3.7841,-3.784,0,-3.8045,-3.8102,-3.8003,-3.8036,-3.8097,-3.8015,-3.8078,-3.8046,-3.802,-3.8045,-3.7957,-3.7983,-3.7895,-3.7914,-3.7863,-3.7918,-3.7919,-3.7896,-3.7881,-3.7902,-3.7905,-3.7903,-3.789,-3.7847,-3.7846,-3.7845,-3.7844,0,-3.8268,-3.8204,-3.8255,-3.8199,-3.8186,-3.8234,-3.8186,-3.8215,-3.8172,-3.8206,-3.821,-3.8142,-3.8159,-3.8094,-3.81,-3.8066,-3.8148,-3.8116,-3.8156,-3.8145,-3.8226,-3.8219,-3.8498,-3.853,-3.8255,-3.8258,-3.826,0,-3.8394,-3.8435,-3.8384,-3.8394,-3.8377,-3.8395,-3.8398,-3.832,-3.8327,-3.8302,-3.8335,-3.8345,-3.8347,-3.838,-3.8332,-3.8338,-3.8304,-3.8402,-3.8304,-3.8325,-3.8304,-3.8302,-3.8305,-3.8421,-3.8425,-3.8427,-3.843,0,-3.8625,-3.8592,-3.8599,-3.8596,-3.8602,-3.8597,-3.8585,-3.8599,-3.8515,-3.8529,-3.8544,-3.8547,-3.8554,-3.8565,-3.8561,-3.854,-3.8472,-3.8461,-3.8479,-3.85,-3.8521,-3.851,-3.821,-3.8454,-3.8452,-3.845,-3.8449,-3.8448,-3.8802,-3.8834,-3.8803,-3.8815,-3.8798,-3.879,-3.8814,-3.8775,-3.8786,-3.8784,-3.8739,-3.8764,-3.874,-3.8726,-3.8713,-3.8733,-3.8687,-3.8714,-3.872,-3.8727,-3.8741,-3.8521,-3.8732,-3.8732,-3.8731,-3.873,-3.873,0,-3.9027,-3.9003,-3.9014,-3.9,-3.9011,-3.8946,-3.893,-3.8943,-3.8966,-3.8949,-3.8954,-3.8974,-3.8985,-3.894,-3.8945,-3.897,-3.8939,-3.8974,-3.897,-3.8966,-3.8781,-3.8765,-3.8999,-3.8999,-3.8999,-3.8998,-3.8998,-3.8998,-3.9145,-3.9196,-3.916,-3.9203,-3.9178,-3.9201,-3.9198,-3.9191,-3.9177,-3.9202,-3.9211,-3.9181,-3.9153,-3.9156,-3.9164,-3.915,-3.9156,-3.9202,-3.9178,-3.9006,-3.8979,-3.8954,-3.8938,-3.9204,-3.9204,-3.936,-3.9362,-3.9363]},{"header":{"parameterUnit":"m.s-1","parameterCategory":1,"la1":30.2991,"la2":30.254,"lo1":-89.0895,"lo2":-89.0444,"dy":0.0017,"dx":0.0017,"nx":28,"ny":28,"refTime":"2024-04-05T21:00:00:Z","depth":0,"parameterNumber":3,"parameterNumberName":"V-component_of_WINDS"},"data":[0,0,0,0,0,0,0,0,0,0,0,0,0,0,0,0,0,0,0,0,0,0,0,0,0,0,0,0,0,0,0,0,0,0,0,0,0,0,0,0,0,0,0,0,0,0,0,0,0,0,0,0,0,0,0,0,0,0,2.1511,2.151,0,2.1435,2.1434,2.1433,2.1428,2.1429,2.143,2.1431,2.1347,2.1344,2.1341,0,0,0,0,0,0,0,0,0,0,0,0,0,2.1647,2.1644,2.1511,2.151,2.1509,2.1435,2.1434,2.1433,2.1428,2.1429,2.143,2.1431,2.1348,2.1345,2.1341,0,0,0,0,0,0,0,0,0,0,0,0,0,2.1581,2.1644,2.1511,2.1497,2.1496,2.1435,2.1434,2.1433,2.1428,2.1429,2.143,2.1431,2.135,2.1345,2.1341,2.1287,0,0,2.1327,2.1325,0,0,0,0,0,0,0,0,2.1585,2.1576,2.15,2.1498,2.1496,2.1442,2.1452,2.1384,2.1427,2.1453,2.1431,2.1432,2.1378,2.1371,2.1354,2.1283,2.1279,2.1326,2.1324,2.1322,2.132,0,0,0,0,0,0,0,2.1589,2.1579,2.148,2.1499,2.1497,2.1494,2.1486,2.1439,2.1409,2.1451,2.1451,2.1442,2.1377,2.1358,2.1352,2.1278,2.1327,2.1323,2.132,2.1318,2.116,2.1159,0,0,0,0,0,0,2.1597,2.1583,2.1483,2.1478,2.1545,2.1491,2.1482,2.1458,2.1409,2.1403,2.1441,2.1442,2.1365,2.1357,2.1349,2.1283,2.1322,2.1318,2.1315,2.1162,2.116,2.1159,0,0,0,0,0,0,2.16,2.1588,2.1486,2.1531,2.1517,2.1487,2.146,2.1456,2.1437,2.1402,2.1396,2.1428,2.1366,2.1355,2.1303,2.128,2.1315,2.1311,2.1164,2.1161,2.1159,2.115,0,0,0,0,0,0,2.1604,2.1589,2.1569,2.153,2.1515,2.1442,2.1459,2.1454,2.143,2.1431,2.1388,2.1382,2.1366,2.131,2.1298,2.1274,2.1308,2.1165,2.1163,2.116,2.1152,2.1148,2.1144,0,0,0,0,0,2.1609,2.1568,2.1568,2.1556,2.1489,2.1441,2.1432,2.1416,2.1428,2.1407,2.1385,2.1383,2.1285,2.1304,2.1292,2.1265,2.1167,2.1163,2.116,2.1154,2.1148,2.1144,0,0,0,0,0,0,2.1602,2.1562,2.1562,2.1508,2.1478,2.144,2.1413,2.1411,2.1376,2.1377,2.1358,2.1348,2.1297,2.1276,2.1299,2.1211,2.1227,2.1221,2.1226,2.1221,2.1217,2.1222,2.1304,0,0,0,0,0,2.1595,2.1561,2.1527,2.1482,2.1468,2.1443,2.1422,2.1413,2.138,2.1367,2.134,2.1308,2.127,2.1244,2.1207,2.115,2.114,2.1126,2.1122,2.1119,2.1113,2.1082,2.1075,2.1148,2.1148,2.1148,0,0,2.1578,2.1553,2.1531,2.1481,2.1456,2.142,2.1432,2.1393,2.1366,2.136,2.131,2.129,2.1252,2.1197,2.1172,2.1178,2.1091,2.1114,2.1112,2.1108,2.1077,2.1071,2.1064,2.1145,2.1146,2.1146,0,0,2.153,2.1507,2.1468,2.1444,2.1409,2.1393,2.1384,2.1347,2.1334,2.1284,2.128,2.1246,2.1181,2.1154,2.1132,2.1077,2.1074,2.1065,2.1043,2.1012,2.1007,2.1001,2.0981,2.0974,2.106,2.106,2.106,0,2.1513,2.146,2.1447,2.1409,2.1386,2.1383,2.1342,2.132,2.1273,2.1257,2.1266,2.1185,2.1159,2.1099,2.1086,2.1068,2.1056,2.1069,2.1009,2.1004,2.0998,2.0979,2.0971,2.1059,2.1059,2.106,2.106,0,2.1441,2.1404,2.1376,2.1334,2.1309,2.1269,2.125,2.1226,2.122,2.1203,2.1152,2.1122,2.1079,2.1064,2.1057,2.1003,2.1008,2.1013,2.1028,2.0991,2.0972,2.0964,2.1058,2.1058,2.1059,2.1059,0,0,2.1382,2.1337,2.1327,2.1308,2.127,2.124,2.1201,2.1162,2.1141,2.111,2.1075,2.1022,2.1027,2.1002,2.0992,2.0966,2.0924,2.0974,2.0973,2.0965,2.0862,2.0858,2.0849,2.0923,2.0921,2.092,2.0865,0,2.1329,2.1261,2.125,2.1189,2.1155,2.1153,2.1118,2.1091,2.1075,2.1043,2.1024,2.0987,2.0997,2.0982,2.0956,2.0934,2.0903,2.0938,2.0889,2.0887,2.0897,2.0839,2.0834,2.0783,2.0858,2.0856,2.0856,0,2.1256,2.1226,2.1163,2.1131,2.1116,2.1086,2.1049,2.1019,2.0988,2.0978,2.0952,2.0946,2.0904,2.0923,2.0865,2.089,2.0869,2.0856,2.0854,2.0847,2.0868,2.083,2.0767,2.0759,2.0844,2.0845,2.0846,0,2.122,2.1163,2.1118,2.1102,2.1064,2.1043,2.1026,2.0996,2.0974,2.0942,2.0927,2.089,2.0869,2.084,2.0824,2.0839,2.0767,2.0784,2.0756,2.0756,2.0739,2.074,2.067,2.0728,2.0728,2.0729,2.0729,0,2.116,2.1121,2.1101,2.1073,2.103,2.1018,2.0975,2.0958,2.0932,2.09,2.0896,2.0866,2.0847,2.0814,2.0801,2.0755,2.0745,2.0735,2.0732,2.0735,2.0736,2.072,2.0722,2.0727,2.0727,2.0727,2.0728,0,2.111,2.1096,2.1046,2.1016,2.1008,2.0977,2.095,2.0922,2.0908,2.0868,2.0858,2.0834,2.0795,2.0777,2.0728,2.0719,2.0667,2.0666,2.0678,2.0676,2.0649,2.0652,2.0565,2.0553,2.062,2.062,2.0619,0,2.1072,2.1043,2.101,2.099,2.0973,2.0939,2.0917,2.0905,2.0882,2.0846,2.0822,2.0784,2.0753,2.0691,2.0668,2.0631,2.0629,2.0601,2.0623,2.0627,2.0627,2.0629,2.0625,2.0597,2.0596,2.0595,2.0595,0,2.1006,2.1001,2.097,2.0938,2.0912,2.0885,2.0858,2.0841,2.0825,2.0799,2.0761,2.0737,2.0688,2.065,2.0612,2.0593,2.059,2.0589,2.058,2.0582,2.059,2.0585,2.0666,2.059,2.0591,2.0591,2.0591,2.0592,2.096,2.0934,2.0908,2.0874,2.0854,2.083,2.0803,2.0787,2.0755,2.0716,2.0711,2.067,2.0641,2.059,2.057,2.0537,2.0543,2.053,2.0527,2.0524,2.0522,2.0597,2.053,2.053,2.053,2.053,2.053,0,2.0893,2.0877,2.0847,2.0811,2.0785,2.0788,2.076,2.0737,2.0701,2.0676,2.0646,2.0602,2.0565,2.0542,2.0504,2.0483,2.0481,2.0473,2.0474,2.0469,2.0519,2.053,2.0475,2.0475,2.0475,2.0475,2.0475,2.0475,2.0855,2.0812,2.0804,2.0751,2.0735,2.0696,2.068,2.0657,2.0637,2.0589,2.0559,2.0545,2.052,2.0481,2.0448,2.0442,2.0428,2.042,2.0413,2.046,2.0466,2.0471,2.0481,2.0417,2.0417,2.0366,2.0366,2.0365]}]]